Погода в Мосуле

Ирак     36°21′21″N   43°09′31″E
темп.,
°C
ветер,
м/с
пор.,
м/с
влажн.,
%
обл.,
%
осадки,
мм/ч
давл.,
гПа
погр.,
м
7 марта, вс
вс700:00+11ссз126175 0.0 102123
03:00+10с116687 0.0 101922
06:00+9вюв226387 0.0 102022
09:00+14в225257 0.0 1019211
12:00+17юв01410 0.0 1018996
15:00+18сз123614 0.0 10151745
18:00+15св125599 0.0 101523
21:00+13в235249 0.0 101523
8 марта, пн
пн800:00+12вюв45560 0.0 101645
03:00+11в34610 0.0 101432
06:00+11в45620 0.0 101539
09:00+14в45530 0.0 1015293
12:00+19юв35360 0.0 10131372
15:00+20юз33300 0.0 10112013
18:00+16з45440 0.0 101055
21:00+14зсз58634 0.0 1011154
9 марта, вт
вт900:00+12зсз337341 0.0 101228
03:00+11з237721 0.0 101323
06:00+10з23830 0.0 101423
09:00+13ссз337317 0.0 1016305
12:00+17сз344097 0.0 10161501
15:00+17сз553098 0.0 10152004
18:00+13сз22473 0.0 101623
21:00+12с224926 0.0 101823
10 марта, ср
ср1000:00+11с115699 0.0 101823
03:00+10в235183 0.0 101822
06:00+8в12600 0.0 101822
09:00+13всв23430 0.0 1019232
12:00+17вюв22360 0.0 10181082
15:00+18в233633 0.0 10161640
18:00+16всв455073 0.0 101462
21:00+14в575487 0.0 1014150
11 марта, чт
чт1100:00+13всв6969100 0.5 1012175
03:00+11всв101480100 0.6 1008390
06:00+11всв10157690 0.0 1005298
09:00+15в9136395 0.0 1002892
12:00+21ю4433100 0.0 10001133
15:00+21з663583 0.0 9991550
18:00+16зсз712590 0.0 999336
21:00+14з6126546 0.0 1000325